• în România
  • Lista ţărilor
  • Pe 7 zile
  • Temperatura apei
  • Hartă satelitară
  • Meteo pe hartă
  • Widget-uri
  • user-avatar
    Intrare

    Meteo pe oră la Guanare

    Astăzi, 19 Octombrie, Vineri

    Timp Temperatura Precipitaţii Vânt Presiune Umiditate
    00:00 +26°C° 1 mm 1 m/s 740 mmHg 94%
    01:00 +23°C° 1 mm 0 m/s 740 mmHg 95%
    02:00 +23°C° 0.6 mm 0 m/s 740 mmHg 95%
    03:00 +25°C° 0.6 mm 1 m/s 740 mmHg 94%
    04:00 +25°C° 0.6 mm 1 m/s 740 mmHg 94%
    05:00 +25°C° 0.1 mm 1 m/s 740 mmHg 92%
    06:00 +24°C° 0.1 mm 0 m/s 741 mmHg 90%
    07:00 +25°C° 0.1 mm 0 m/s 741 mmHg 87%
    08:00 +29°C° 0.3 mm 1 m/s 741 mmHg 80%
    09:00 +30°C° 0.3 mm 1 m/s 741 mmHg 73%
    10:00 +32°C° 0.3 mm 1 m/s 741 mmHg 65%
    11:00 +32°C° 0.8 mm 1 m/s 740 mmHg 67%
    12:00 +32°C° 0.8 mm 1 m/s 740 mmHg 68%
    13:00 +33°C° 0.8 mm 1 m/s 739 mmHg 69%
    14:00 +32°C° 2.4 mm 1 m/s 739 mmHg 75%
    15:00 +31°C° 2.4 mm 1 m/s 738 mmHg 81%
    16:00 +30°C° 2.4 mm 1 m/s 738 mmHg 87%
    17:00 +29°C° 1.6 mm 1 m/s 738 mmHg 90%
    18:00 +28°C° 1.6 mm 1 m/s 739 mmHg 92%
    19:00 +27°C° 1.6 mm 1 m/s 739 mmHg 95%
    20:00 +26°C° 0.6 mm 1 m/s 740 mmHg 95%
    21:00 +26°C° 0.6 mm 1 m/s 740 mmHg 96%
    22:00 +26°C° 0.6 mm 1 m/s 740 mmHg 96%
    23:00 +26°C° 0.3 mm 1 m/s 740 mmHg 96%

    Mâine, 20 Octombrie, Sâmbătă

    Timp Temperatura Precipitaţii Vânt Presiune Umiditate
    00:00 +25°C° 0.3 mm 1 m/s 740 mmHg 96%
    01:00 +25°C° 0.3 mm 1 m/s 740 mmHg 96%
    02:00 +25°C° 0.5 mm 1 m/s 739 mmHg 96%
    03:00 +25°C° 0.5 mm 1 m/s 739 mmHg 95%
    04:00 +25°C° 0.5 mm 1 m/s 739 mmHg 95%
    05:00 +25°C° 0.1 mm 1 m/s 740 mmHg 93%
    06:00 +24°C° 0.1 mm 0 m/s 740 mmHg 92%
    07:00 +25°C° 0.1 mm 0 m/s 741 mmHg 90%
    08:00 +26°C° 0.5 mm 0 m/s 741 mmHg 85%
    09:00 +29°C° 0.5 mm 1 m/s 741 mmHg 80%
    10:00 +31°C° 0.5 mm 1 m/s 741 mmHg 75%
    11:00 +31°C° 0.9 mm 1 m/s 740 mmHg 78%
    12:00 +30°C° 0.9 mm 1 m/s 739 mmHg 81%
    13:00 +30°C° 0.9 mm 1 m/s 738 mmHg 85%
    14:00 +30°C° 1.1 mm 1 m/s 738 mmHg 87%
    15:00 +29°C° 1.1 mm 1 m/s 738 mmHg 89%
    16:00 +27°C° 1.1 mm 0 m/s 738 mmHg 91%
    17:00 +26°C° 0.7 mm 0 m/s 738 mmHg 92%
    18:00 +25°C° 0.7 mm 0 m/s 739 mmHg 93%
    19:00 +24°C° 0.7 mm 0 m/s 739 mmHg 94%
    20:00 +24°C° 0.3 mm 0 m/s 739 mmHg 94%
    21:00 +24°C° 0.3 mm 0 m/s 740 mmHg 94%
    22:00 +26°C° 0.3 mm 1 m/s 740 mmHg 94%
    23:00 +26°C° 0.2 mm 1 m/s 740 mmHg 94%

    Poimâine, 21 Octombrie, Duminică

    Timp Temperatura Precipitaţii Vânt Presiune Umiditate
    00:00 +25°C° 0.2 mm 1 m/s 739 mmHg 94%
    01:00 +25°C° 0.2 mm 1 m/s 739 mmHg 94%
    02:00 +25°C° 0 mm 1 m/s 739 mmHg 94%
    03:00 +25°C° 0 mm 1 m/s 739 mmHg 94%
    04:00 +25°C° 0 mm 1 m/s 739 mmHg 94%
    05:00 +25°C° 0 mm 1 m/s 739 mmHg 91%
    06:00 +26°C° 0 mm 1 m/s 740 mmHg 88%
    07:00 +27°C° 0 mm 1 m/s 740 mmHg 86%
    08:00 +29°C° 0 mm 1 m/s 741 mmHg 77%
    09:00 +31°C° 0 mm 1 m/s 741 mmHg 69%
    10:00 +33°C° 0 mm 1 m/s 741 mmHg 60%
    11:00 +33°C° 0.5 mm 1 m/s 740 mmHg 64%
    12:00 +32°C° 0.5 mm 1 m/s 739 mmHg 69%
    13:00 +32°C° 0.5 mm 1 m/s 738 mmHg 73%
    14:00 +32°C° 1.2 mm 1 m/s 738 mmHg 76%
    15:00 +31°C° 1.2 mm 1 m/s 738 mmHg 80%
    16:00 +31°C° 1.2 mm 1 m/s 737 mmHg 83%
    17:00 +29°C° 0.4 mm 1 m/s 738 mmHg 87%
    18:00 +28°C° 0.4 mm 1 m/s 738 mmHg 90%
    19:00 +27°C° 0.4 mm 1 m/s 739 mmHg 93%
    20:00 +26°C° 0.1 mm 1 m/s 739 mmHg 93%
    21:00 +26°C° 0.1 mm 1 m/s 740 mmHg 93%
    22:00 +26°C° 0.1 mm 1 m/s 740 mmHg 93%
    23:00 +26°C° 0 mm 1 m/s 740 mmHg 93%

    22 Octombrie, Luni

    Timp Temperatura Precipitaţii Vânt Presiune Umiditate
    00:00 +25°C° 0 mm 1 m/s 739 mmHg 92%
    01:00 +25°C° 0 mm 1 m/s 739 mmHg 92%
    02:00 +25°C° 0.1 mm 1 m/s 739 mmHg 91%
    03:00 +25°C° 0.1 mm 1 m/s 739 mmHg 91%
    04:00 +24°C° 0.1 mm 1 m/s 739 mmHg 91%
    05:00 +25°C° 0 mm 1 m/s 740 mmHg 88%
    06:00 +26°C° 0 mm 1 m/s 740 mmHg 85%
    07:00 +27°C° 0 mm 1 m/s 741 mmHg 82%
    08:00 +29°C° 0 mm 1 m/s 741 mmHg 74%
    09:00 +31°C° 0 mm 1 m/s 741 mmHg 65%
    10:00 +33°C° 0 mm 1 m/s 741 mmHg 56%
    11:00 +33°C° 0.2 mm 1 m/s 741 mmHg 57%
    12:00 +34°C° 0.2 mm 1 m/s 740 mmHg 58%
    13:00 +34°C° 0.2 mm 1 m/s 739 mmHg 59%
    14:00 +33°C° 0.6 mm 1 m/s 739 mmHg 64%
    15:00 +32°C° 0.6 mm 1 m/s 738 mmHg 70%
    16:00 +31°C° 0.6 mm 1 m/s 738 mmHg 75%
    17:00 +30°C° 0.4 mm 1 m/s 738 mmHg 80%
    18:00 +28°C° 0.4 mm 1 m/s 739 mmHg 85%
    19:00 +27°C° 0.4 mm 1 m/s 740 mmHg 90%
    20:00 +27°C° 0.1 mm 1 m/s 740 mmHg 90%
    21:00 +26°C° 0.1 mm 1 m/s 740 mmHg 90%
    22:00 +26°C° 0.1 mm 1 m/s 740 mmHg 90%
    23:00 +26°C° 0.1 mm 1 m/s 740 mmHg 90%

    23 Octombrie, Marţi

    Timp Temperatura Precipitaţii Vânt Presiune Umiditate
    00:00 +26°C° 0.1 mm 1 m/s 740 mmHg 90%
    01:00 +25°C° 0.1 mm 1 m/s 740 mmHg 90%
    02:00 +25°C° 0 mm 1 m/s 740 mmHg 89%
    03:00 +25°C° 0 mm 1 m/s 740 mmHg 88%
    04:00 +25°C° 0 mm 1 m/s 740 mmHg 88%
    05:00 +25°C° 0 mm 1 m/s 740 mmHg 85%
    06:00 +26°C° 0 mm 1 m/s 741 mmHg 82%
    07:00 +25°C° 0 mm 0 m/s 741 mmHg 79%
    08:00 +29°C° 0.2 mm 1 m/s 741 mmHg 71%
    09:00 +31°C° 0.2 mm 1 m/s 741 mmHg 63%
    10:00 +33°C° 0.2 mm 1 m/s 742 mmHg 55%
    11:00 +34°C° 0.2 mm 1 m/s 741 mmHg 55%
    12:00 +34°C° 0.2 mm 1 m/s 740 mmHg 56%
    13:00 +34°C° 0.2 mm 1 m/s 739 mmHg 56%
    14:00 +34°C° 0.2 mm 1 m/s 739 mmHg 61%
    15:00 +33°C° 0.2 mm 1 m/s 738 mmHg 65%
    16:00 +32°C° 0.2 mm 1 m/s 738 mmHg 69%
    17:00 +31°C° 0.5 mm 1 m/s 739 mmHg 76%
    18:00 +29°C° 0.5 mm 1 m/s 739 mmHg 82%
    19:00 +27°C° 0.5 mm 1 m/s 740 mmHg 88%
    20:00 +27°C° 0.6 mm 1 m/s 740 mmHg 89%
    21:00 +27°C° 0.6 mm 1 m/s 740 mmHg 90%
    22:00 +26°C° 0.6 mm 1 m/s 741 mmHg 91%
    23:00 +26°C° 0.9 mm 1 m/s 740 mmHg 92%

    24 Octombrie, Miercuri

    Timp Temperatura Precipitaţii Vânt Presiune Umiditate
    00:00 +26°C° 0.9 mm 1 m/s 740 mmHg 92%
    01:00 +26°C° 0.9 mm 1 m/s 740 mmHg 93%
    02:00 +25°C° 1.1 mm 1 m/s 740 mmHg 93%
    03:00 +25°C° 1.1 mm 1 m/s 740 mmHg 94%
    04:00 +25°C° 1.1 mm 1 m/s 740 mmHg 94%
    05:00 +25°C° 0.4 mm 1 m/s 741 mmHg 92%
    06:00 +26°C° 0.4 mm 1 m/s 741 mmHg 90%
    07:00 +25°C° 0.4 mm 0 m/s 742 mmHg 88%
    08:00 +28°C° 0.2 mm 1 m/s 742 mmHg 83%
    09:00 +29°C° 0.2 mm 1 m/s 742 mmHg 77%
    10:00 +31°C° 0.2 mm 1 m/s 742 mmHg 72%
    11:00 +31°C° 0.4 mm 1 m/s 741 mmHg 70%
    12:00 +32°C° 0.4 mm 1 m/s 740 mmHg 68%
    13:00 +32°C° 0.4 mm 1 m/s 739 mmHg 66%
    14:00 +32°C° 0.5 mm 1 m/s 739 mmHg 70%
    15:00 +31°C° 0.5 mm 1 m/s 739 mmHg 73%
    16:00 +31°C° 0.5 mm 1 m/s 739 mmHg 76%
    17:00 +29°C° 2 mm 1 m/s 739 mmHg 83%
    18:00 +28°C° 2 mm 1 m/s 740 mmHg 89%
    19:00 +26°C° 2 mm 1 m/s 740 mmHg 95%
    20:00 +26°C° 2.2 mm 1 m/s 741 mmHg 95%
    21:00 +26°C° 2.2 mm 1 m/s 741 mmHg 96%
    22:00 +24°C° 2.2 mm 0 m/s 741 mmHg 96%
    23:00 +24°C° 1.8 mm 0 m/s 741 mmHg 97%
    Arată mai mult